EW7670 Weather Reports


Display with metric or nautical units.
time (UTC)temp
F
wind
direction
speed
MPH
gust
MPH
rain 1hr
in
rain 24hr
in
rain mn
in
humidity
%
barometer
mb
20260502110134 58 335 8.0 13.0 0.12 0.21 0.21 95 1009.4
20260502100152 61 302 3.0 5.0 0.00 0.09 0.09 94 1009.0
20260502071522 61 149 7.0 13.0 0.01 0.09 0.09 93 1009.0
20260502063014 62 144 9.0 16.0 0.09 0.09 0.09 92 1009.2
20260502060032 62 187 8.0 12.0 0.01 0.01 0.01 92 1010.3
20260502054511 62 192 6.0 9.0 0.00 0.00 0.00 92 1010.4
20260502053002 61 192 6.0 10.0 0.00 0.00 0.00 92 1010.5
20260502051601 60 123 0.0 3.0 0.00 0.00 0.00 91 1010.8
20260502050050 60 124 3.0 5.0 0.00 0.00 0.00 91 1010.8
20260502044530 59 59 2.0 5.0 0.00 0.00 0.00 90 1010.9
20260502043037 61 198 1.0 6.0 0.00 0.00 0.00 91 1011.2
20260502041534 59 131 0.0 4.0 0.00 0.00 0.00 90 1011.3
20260502040033 59 331 6.0 8.0 0.00 0.00 0.00 90 1011.6
20260502034509 59 104 1.0 5.0 0.00 0.00 0.00 89 1011.3
20260502013115 57 88 8.0 12.0 0.00 0.00 0.00 88 1011.6
20260501224518 55 77 6.0 11.0 0.00 0.00 0.00 82 1012.2
20260501210024 55 57 9.0 14.0 0.00 0.00 0.00 78 1012.9
20260501184638 54 44 10.0 15.0 0.00 0.00 0.00 78 1013.9
20260501173100 55 23 8.0 13.0 0.00 0.00 0.00 76 1014.5
20260501161538 55 86 12.0 18.0 0.00 0.00 0.00 77 1014.3
20260501151510 55 52 15.0 19.0 0.00 0.00 0.00 75 1014.4